FW1396 Weather Reports


Display with metric or nautical units.
time (UTC)temp
F
wind
direction
speed
MPH
gust
MPH
rain 1hr
in
rain 24hr
in
rain mn
in
humidity
%
barometer
mb
20260904170811 96 257 1.0 4.0 0.00 0.00 0.00 55 999.0
20260904170311 96 257 3.0 7.0 0.00 0.00 0.00 54 999.1
20260904165810 96 261 4.0 7.0 0.00 0.00 0.00 54 999.3
20260904165543 96 252 2.0 9.0 0.00 0.00 0.00 55 999.3
20260904165041 96 185 5.0 11.0 0.00 0.00 0.00 54 999.2
20260904164310 96 250 2.0 11.0 0.00 0.00 0.00 54 999.3
20260904163810 96 231 2.0 9.0 0.00 0.00 0.00 54 999.4
20260904163312 96 226 5.0 9.0 0.00 0.00 0.00 54 999.5
20260904162809 96 244 4.0 7.0 0.00 0.00 0.00 55 999.5
20260904162308 96 269 4.0 6.0 0.00 0.00 0.00 55 999.4
20260904161809 96 103 2.0 4.0 0.00 0.00 0.00 57 999.4
20260904161308 96 161 2.0 4.0 0.00 0.00 0.00 58 999.4
20260904161040 95 97 2.0 7.0 0.00 0.00 0.00 58 999.4
20260904160541 95 224 4.0 7.0 0.00 0.00 0.00 57 999.5
20260904155811 95 195 0.0 0.0 0.00 0.00 0.00 59 999.5
20260904155308 94 0 0.0 0.0 0.00 0.00 0.00 60 999.5
20260904154809 93 141 0.0 0.0 0.00 0.00 0.00 61 999.5
20260904154309 93 213 0.0 0.0 0.00 0.00 0.00 62 999.5
20260904154039 92 213 0.0 0.0 0.00 0.00 0.00 64 999.5
20260904153309 91 213 0.0 0.0 0.00 0.00 0.00 64 999.6
20260904153039 90 220 0.0 0.0 0.00 0.00 0.00 66 999.6
20260904152309 90 175 0.0 0.0 0.00 0.00 0.00 67 999.7
20260904151807 89 175 0.0 0.0 0.00 0.00 0.00 67 999.7
20260904151307 88 159 0.0 0.0 0.00 0.00 0.00 68 999.7
20260904150807 88 231 0.0 0.0 0.00 0.00 0.00 69 999.7
20260904150308 87 237 0.0 0.0 0.00 0.00 0.00 69 999.6
20260904145808 87 237 0.0 0.0 0.00 0.00 0.00 70 999.7
20260904145307 87 216 0.0 0.0 0.00 0.00 0.00 71 999.7
20260904145041 86 210 0.0 0.0 0.00 0.00 0.00 72 999.6
20260904144308 85 210 0.0 0.0 0.00 0.00 0.00 72 999.6
20260904144038 85 210 0.0 0.0 0.00 0.00 0.00 73 999.6
20260904143306 84 209 0.0 0.0 0.00 0.00 0.00 76 999.6
20260904142806 83 209 0.0 0.0 0.00 0.00 0.00 75 999.5
20260904142540 83 233 0.0 0.0 0.00 0.00 0.00 78 999.5
20260904141807 0 231 0.0 0.0 0.00 0.00 0.00 999.5
20260904141307 0 0.0 0.0 0.00 0.00 0.00 999.5
20260904140805 0 0.0 0.0 0.00 0.00 0.00 999.5
20260904140306 0 0.0 0.0 0.00 0.00 0.00 999.4
20260904135802 0 0.0 0.0 0.00 0.00 0.00 999.5
20260904135305 0 0.0 0.0 0.00 0.00 0.00 999.5
20260904135031 78 173 0.0 0.0 0.00 0.00 0.00 85 999.5
20260904134306 78 173 0.0 0.0 0.00 0.00 0.00 85 999.5
20260904133759 77 173 0.0 0.0 0.00 0.00 0.00 85 999.6
20260904133259 77 173 0.0 0.0 0.00 0.00 0.00 85 999.5
20260904132758 76 173 0.0 0.0 0.00 0.00 0.00 88 999.5
20260904132258 76 173 0.0 0.0 0.00 0.00 0.00 89 999.6
20260904131759 75 173 0.0 0.0 0.00 0.00 0.00 89 999.6
20260904131257 75 173 0.0 0.0 0.00 0.00 0.00 89 999.5
20260904130758 74 173 0.0 0.0 0.00 0.00 0.00 90 999.5
20260904130528 74 173 0.0 0.0 0.00 0.00 0.00 91 999.5
20260904125758 74 173 0.0 0.0 0.00 0.00 0.00 92 999.5
20260904124757 73 173 0.0 0.0 0.00 0.00 0.00 93 999.4
20260904124528 73 173 0.0 0.0 0.00 0.00 0.00 93 999.4
20260904123758 72 173 0.0 0.0 0.00 0.00 0.00 93 999.4
20260904123258 72 173 0.0 0.0 0.00 0.00 0.00 92 999.4
20260904123027 72 173 0.0 0.0 0.00 0.00 0.00 92 999.3
20260904122257 72 173 0.0 0.0 0.00 0.00 0.00 92 999.3
20260904121758 72 173 0.0 0.0 0.00 0.00 0.00 92 999.3
20260904121257 72 173 0.0 0.0 0.00 0.00 0.00 92 999.2
20260904120756 72 173 0.0 0.0 0.00 0.00 0.00 92 999.2
20260904120257 71 173 0.0 0.0 0.00 0.00 0.00 92 999.1
20260904115756 71 173 0.0 0.0 0.00 0.00 0.00 92 999.1
20260904115257 71 173 0.0 0.0 0.00 0.00 0.00 92 999.0
20260904115029 72 173 0.0 0.0 0.00 0.00 0.00 92 999.0
20260904114256 72 173 0.0 0.0 0.00 0.00 0.00 92 998.8
20260904113756 72 173 0.0 0.0 0.00 0.00 0.00 91 998.8
20260904113527 72 173 0.0 0.0 0.00 0.00 0.00 91 998.8
20260904112755 72 173 0.0 0.0 0.00 0.00 0.00 91 998.8
20260904112255 72 173 0.0 0.0 0.00 0.00 0.00 91 998.8
20260904112025 72 173 0.0 0.0 0.00 0.00 0.00 91 998.8
20260904111256 72 173 0.0 0.0 0.00 0.00 0.00 91 998.7
20260904111026 72 173 0.0 0.0 0.00 0.00 0.00 91 998.7
20260904110254 72 173 0.0 0.0 0.00 0.00 0.00 91 998.8
20260904105754 72 173 0.0 0.0 0.00 0.00 0.00 91 998.7
20260904105255 72 173 0.0 0.0 0.00 0.00 0.00 91 998.7
20260904104754 72 173 0.0 0.0 0.00 0.00 0.00 91 998.7
20260904104254 72 173 0.0 0.0 0.00 0.00 0.00 91 998.7
20260904103754 72 173 0.0 0.0 0.00 0.00 0.00 90 998.6
20260904103253 72 173 0.0 0.0 0.00 0.00 0.00 90 998.6
20260904102755 72 173 0.0 0.0 0.00 0.00 0.00 90 998.6
20260904102254 72 173 0.0 0.0 0.00 0.00 0.00 90 998.6
20260904101755 72 173 0.0 0.0 0.00 0.00 0.00 90 998.5
20260904101253 72 173 0.0 0.0 0.00 0.00 0.00 90 998.6
20260904100755 72 173 0.0 0.0 0.00 0.00 0.00 90 998.5
20260904100254 72 173 0.0 0.0 0.00 0.00 0.00 89 998.6
20260904095754 72 173 0.0 0.0 0.00 0.00 0.00 89 998.4
20260904095253 72 173 0.0 0.0 0.00 0.00 0.00 89 998.5
20260904094754 73 173 0.0 0.0 0.00 0.00 0.00 89 998.6
20260904094252 73 173 0.0 0.0 0.00 0.00 0.00 89 998.5
20260904093752 73 173 0.0 0.0 0.00 0.00 0.00 89 998.5
20260904093254 73 173 0.0 0.0 0.00 0.00 0.00 89 998.3
20260904092753 73 173 0.0 0.0 0.00 0.00 0.00 89 998.2
20260904092253 73 173 0.0 0.0 0.00 0.00 0.00 88 998.2
20260904091752 73 173 0.0 0.0 0.00 0.00 0.00 88 998.2
20260904091251 73 173 0.0 0.0 0.00 0.00 0.00 88 998.1
20260904090753 73 173 0.0 0.0 0.00 0.00 0.00 88 998.1
20260904090253 73 173 0.0 0.0 0.00 0.00 0.00 88 998.1
20260904085753 73 173 0.0 0.0 0.00 0.00 0.00 88 998.1
20260904085253 73 173 0.0 0.0 0.00 0.00 0.00 88 998.1
20260904084753 73 173 0.0 0.0 0.00 0.00 0.00 88 998.1
20260904084251 73 173 0.0 0.0 0.00 0.00 0.00 88 998.1
20260904083750 73 173 0.0 0.0 0.00 0.00 0.00 88 998.0
20260904082754 74 173 0.0 0.0 0.00 0.00 0.00 87 998.0
20260904081752 74 173 0.0 0.0 0.00 0.00 0.00 87 997.8
20260904081252 74 173 0.0 0.0 0.00 0.00 0.00 87 997.9
20260904080752 74 173 0.0 0.0 0.00 0.00 0.00 87 997.7
20260904080250 74 173 0.0 0.0 0.00 0.00 0.00 87 997.8
20260904075750 74 173 0.0 0.0 0.00 0.00 0.00 86 997.7
20260904075251 74 173 0.0 0.0 0.00 0.00 0.00 86 997.7
20260904074751 74 173 0.0 0.0 0.00 0.00 0.00 86 997.8
20260904074252 74 173 0.0 0.0 0.00 0.00 0.00 85 997.7
20260904073750 74 173 0.0 0.0 0.00 0.00 0.00 85 997.7
20260904073251 74 173 0.0 0.0 0.00 0.00 0.00 85 997.7
20260904073021 75 173 0.0 0.0 0.00 0.00 0.00 85 997.7
20260904072251 75 173 0.0 0.0 0.00 0.00 0.00 85 997.8
20260904071750 75 173 0.0 0.0 0.00 0.00 0.00 85 997.9
20260904071249 75 173 0.0 0.0 0.00 0.00 0.00 85 997.9
20260904070751 75 173 0.0 0.0 0.00 0.00 0.00 84 997.9
20260904070249 75 173 0.0 0.0 0.00 0.00 0.00 84 998.0
20260904065750 75 173 0.0 0.0 0.00 0.00 0.00 84 998.0
20260904065520 75 173 0.0 0.0 0.00 0.00 0.00 84 998.0
20260904064749 75 173 0.0 0.0 0.00 0.00 0.00 84 998.0
20260904064249 75 173 0.0 0.0 0.00 0.00 0.00 83 998.0
20260904063749 76 173 0.0 0.0 0.00 0.00 0.00 83 998.0
20260904063249 76 173 0.0 0.0 0.00 0.00 0.00 83 998.1
20260904062748 76 173 0.0 0.0 0.00 0.00 0.00 83 998.1
20260904062252 76 173 0.0 0.0 0.00 0.00 0.00 83 998.0
20260904061749 76 173 0.0 0.0 0.00 0.00 0.00 83 998.0
20260904061248 76 173 0.0 0.0 0.00 0.00 0.00 82 998.1
20260904061019 76 199 0.0 0.0 0.00 0.00 0.00 82 998.1
20260904060249 76 199 0.0 0.0 0.00 0.00 0.00 82 998.1
20260904055748 76 199 0.0 0.0 0.00 0.00 0.00 81 998.0
20260904055247 77 199 0.0 0.0 0.00 0.00 0.00 81 998.0
20260904054747 77 199 0.0 0.0 0.00 0.00 0.00 81 998.0
20260904054247 77 199 0.0 0.0 0.00 0.00 0.00 80 998.0
20260904054019 77 199 0.0 0.0 0.00 0.00 0.00 80 998.0
20260904053247 77 199 0.0 0.0 0.00 0.00 0.00 80 998.0
20260904052750 77 199 0.0 0.0 0.00 0.00 0.00 79 998.0
20260904052248 78 199 0.0 0.0 0.00 0.00 0.00 79 997.9
20260904051748 78 199 0.0 0.0 0.00 0.00 0.00 79 997.8
20260904051248 78 199 0.0 0.0 0.00 0.00 0.00 78 997.9
20260904050747 78 199 0.0 0.0 0.00 0.00 0.00 78 997.7
20260904050246 78 199 0.0 0.0 0.00 0.00 0.00 77 997.8
20260904045748 78 199 0.0 0.0 0.00 0.00 0.00 77 997.8
20260904044746 78 199 0.0 0.0 0.00 0.00 0.00 77 997.8
20260904044247 79 199 0.0 0.0 0.00 0.00 0.00 76 997.7
20260904043746 79 199 0.0 0.0 0.00 0.00 0.00 76 997.9
20260904043245 79 199 0.0 0.0 0.00 0.00 0.00 76 997.9
20260904042746 79 199 0.0 0.0 0.00 0.00 0.00 75 997.8
20260904042246 79 199 0.0 0.0 0.00 0.00 0.00 75 997.8
20260904041747 80 199 0.0 0.0 0.00 0.00 0.00 74 997.7
20260904041245 80 199 0.0 0.0 0.00 0.00 0.00 75 997.8
20260904041017 80 199 0.0 0.0 0.00 0.00 0.00 74 997.8
20260904040246 80 199 0.0 0.0 0.00 0.00 0.00 74 997.8
20260904035747 80 199 0.0 0.0 0.00 0.00 0.00 73 997.9
20260904035246 80 199 0.0 0.0 0.00 0.00 0.00 73 998.0
20260904034744 80 199 0.0 0.0 0.00 0.00 0.00 73 997.8
20260904034244 81 199 0.0 0.0 0.00 0.00 0.00 72 997.9
20260904034015 81 199 0.0 0.0 0.00 0.00 0.00 72 997.8
20260904033245 81 199 0.0 0.0 0.00 0.00 0.00 71 997.8
20260904032744 81 199 0.0 0.0 0.00 0.00 0.00 71 997.7
20260904032245 82 199 0.0 0.0 0.00 0.00 0.00 71 997.9
20260904032016 82 199 0.0 0.0 0.00 0.00 0.00 70 997.8
20260904031245 82 199 0.0 0.0 0.00 0.00 0.00 70 997.8
20260904030744 82 199 0.0 0.0 0.00 0.00 0.00 69 997.7
20260904030244 83 199 0.0 0.0 0.00 0.00 0.00 69 997.8
20260904025744 83 199 0.0 0.0 0.00 0.00 0.00 68 997.7
20260904025244 83 199 0.0 0.0 0.00 0.00 0.00 67 997.7
20260904024745 84 199 0.0 0.0 0.00 0.00 0.00 66 997.7
20260904024244 85 199 0.0 0.0 0.00 0.00 0.00 65 997.6
20260904023744 85 199 0.0 0.0 0.00 0.00 0.00 64 997.7
20260904023243 85 199 0.0 0.0 0.00 0.00 0.00 63 997.6
20260904022743 86 199 0.0 0.0 0.00 0.00 0.00 63 997.5
20260904022244 86 199 0.0 0.0 0.00 0.00 0.00 62 997.4
20260904021743 86 199 0.0 0.0 0.00 0.00 0.00 61 997.3
20260904021243 87 199 0.0 0.0 0.00 0.00 0.00 61 997.3
20260904020743 88 199 0.0 0.0 0.00 0.00 0.00 59 997.3
20260904020242 88 199 0.0 0.0 0.00 0.00 0.00 58 997.2
20260904015744 89 199 0.0 0.0 0.00 0.00 0.00 56 997.2
20260904015242 89 199 0.0 0.0 0.00 0.00 0.00 56 997.0
20260904014741 89 199 0.0 0.0 0.00 0.00 0.00 56 997.0
20260904014243 90 199 0.0 0.0 0.00 0.00 0.00 54 997.0
20260904013741 90 199 0.0 0.0 0.00 0.00 0.00 54 996.9
20260904013513 91 199 0.0 0.0 0.00 0.00 0.00 53 996.8
20260904013012 91 199 0.0 2.0 0.00 0.00 0.00 53 996.8
20260904012241 91 199 0.0 2.0 0.00 0.00 0.00 52 996.8
20260904011741 92 217 0.0 0.0 0.00 0.00 0.00 51 996.7
20260904011513 92 217 0.0 0.0 0.00 0.00 0.00 51 996.6
20260904010740 92 217 0.0 0.0 0.00 0.00 0.00 50 996.6
20260904010242 93 217 0.0 3.0 0.00 0.00 0.00 50 996.4
20260904005741 93 217 0.0 3.0 0.00 0.00 0.00 49 996.5
20260904005513 93 217 0.0 3.0 0.00 0.00 0.00 48 996.5
20260904004737 94 217 1.0 4.0 0.00 0.00 0.00 48 996.5
20260904004240 94 217 1.0 4.0 0.00 0.00 0.00 47 996.4
20260904004011 94 254 2.0 6.0 0.00 0.00 0.00 46 996.3
20260904003240 95 214 3.0 6.0 0.00 0.00 0.00 46 996.3
20260904002739 95 234 1.0 4.0 0.00 0.00 0.00 46 996.3
20260904002240 95 196 2.0 6.0 0.00 0.00 0.00 46 996.2
20260904001737 95 189 4.0 6.0 0.00 0.00 0.00 46 996.1
20260904001237 96 247 4.0 7.0 0.00 0.00 0.00 46 996.1
20260904001009 96 214 4.0 7.0 0.00 0.00 0.00 46 996.1
20260904000240 96 223 4.0 9.0 0.00 0.00 0.00 46 996.0
20260904000012 96 251 5.0 9.0 0.00 0.00 0.00 46 996.0
20260903235239 96 210 4.0 9.0 0.00 0.00 0.00 46 996.0
20260903235011 97 266 5.0 7.0 0.00 0.00 0.00 45 995.9
20260903234239 97 217 4.0 7.0 0.00 0.00 0.00 45 996.0
20260903234010 97 223 3.0 10.0 0.00 0.00 0.00 46 995.9
20260903233239 97 241 5.0 10.0 0.00 0.00 0.00 45 995.9
20260903232737 97 238 6.0 10.0 0.00 0.00 0.00 45 995.9
20260903232237 97 251 6.0 11.0 0.00 0.00 0.00 45 995.9
20260903231738 98 247 6.0 11.0 0.00 0.00 0.00 46 995.9
20260903231239 98 214 7.0 12.0 0.00 0.00 0.00 46 995.9
20260903230737 98 254 8.0 12.0 0.00 0.00 0.00 45 995.8
20260903230008 98 219 7.0 13.0 0.00 0.00 0.00 45 995.7
20260903225237 98 258 6.0 12.0 0.00 0.00 0.00 46 995.8
20260903224737 98 230 7.0 15.0 0.00 0.00 0.00 46 995.7
20260903224237 98 259 10.0 15.0 0.00 0.00 0.00 46 995.6
20260903223736 99 251 4.0 12.0 0.00 0.00 0.00 47 995.6
20260903223238 98 202 6.0 12.0 0.00 0.00 0.00 47 995.6
20260903222738 99 265 8.0 12.0 0.00 0.00 0.00 46 995.7
20260903222508 99 216 7.0 11.0 0.00 0.00 0.00 46 995.7
20260903221737 99 210 6.0 14.0 0.00 0.00 0.00 46 995.8
20260903221236 99 245 8.0 14.0 0.00 0.00 0.00 46 995.8
20260903221008 99 268 6.0 14.0 0.00 0.00 0.00 46 995.7
20260903220236 99 262 5.0 10.0 0.00 0.00 0.00 46 995.8
20260903215739 99 213 6.0 13.0 0.00 0.00 0.00 45 995.7
20260903215235 99 209 7.0 13.0 0.00 0.00 0.00 45 995.8
20260903214737 99 226 7.0 12.0 0.00 0.00 0.00 45 995.7
20260903214236 99 237 6.0 12.0 0.00 0.00 0.00 45 995.7
20260903213736 100 250 4.0 12.0 0.00 0.00 0.00 45 995.6
20260903213235 100 266 7.0 12.0 0.00 0.00 0.00 45 995.7
20260903212736 100 209 6.0 11.0 0.00 0.00 0.00 45 995.9
20260903212235 100 245 5.0 9.0 0.00 0.00 0.00 44 995.9
20260903211736 100 203 5.0 14.0 0.00 0.00 0.00 43 995.9
20260903211235 100 255 7.0 14.0 0.00 0.00 0.00 43 995.9
20260903210736 101 251 5.0 11.0 0.00 0.00 0.00 43 995.9
20260903210236 101 213 4.0 14.0 0.00 0.00 0.00 43 995.9
20260903205735 101 202 6.0 14.0 0.00 0.00 0.00 42 996.0
20260903205236 101 200 6.0 15.0 0.00 0.00 0.00 42 996.1
20260903204734 101 219 7.0 15.0 0.00 0.00 0.00 42 996.1
20260903204235 101 206 3.0 11.0 0.00 0.00 0.00 43 996.1
20260903204004 101 185 5.0 11.0 0.00 0.00 0.00 42 996.1
20260903203506 101 278 1.0 7.0 0.00 0.00 0.00 43 996.1
20260903202734 100 223 5.0 12.0 0.00 0.00 0.00 42 996.1
20260903202235 100 202 3.0 12.0 0.00 0.00 0.00 43 996.2
20260903201735 101 264 8.0 11.0 0.00 0.00 0.00 42 996.3
20260903201506 101 219 5.0 11.0 0.00 0.00 0.00 43 996.4
20260903200733 101 250 6.0 11.0 0.00 0.00 0.00 43 996.4
20260903200233 100 39 1.0 9.0 0.00 0.00 0.00 44 996.5
20260903195733 99 278 3.0 12.0 0.00 0.00 0.00 45 996.4
20260903195234 99 278 7.0 12.0 0.00 0.00 0.00 45 996.5
20260903194735 98 248 3.0 9.0 0.00 0.00 0.00 47 996.6
20260903194236 98 154 2.0 4.0 0.00 0.00 0.00 46 996.7
20260903194004 98 257 2.0 6.0 0.00 0.00 0.00 46 996.8
20260903193234 99 252 2.0 6.0 0.00 0.00 0.00 46 996.9
20260903192733 99 245 4.0 6.0 0.00 0.00 0.00 47 996.9
20260903192233 100 162 4.0 11.0 0.00 0.00 0.00 47 997.0
20260903191734 100 250 3.0 11.0 0.00 0.00 0.00 46 997.0
20260903191233 100 247 5.0 9.0 0.00 0.00 0.00 46 997.0
20260903190733 99 262 1.0 11.0 0.00 0.00 0.00 48 997.2
20260903190232 99 216 8.0 11.0 0.00 0.00 0.00 47 997.3
20260903185732 99 255 6.0 10.0 0.00 0.00 0.00 47 997.4
20260903185233 98 255 1.0 5.0 0.00 0.00 0.00 48 997.3
20260903184731 98 255 2.0 10.0 0.00 0.00 0.00 48 997.4
20260903184232 98 257 4.0 13.0 0.00 0.00 0.00 48 997.5
20260903183732 99 261 6.0 13.0 0.00 0.00 0.00 47 997.6
20260903183232 99 266 5.0 13.0 0.00 0.00 0.00 47 997.6
20260903182733 99 259 4.0 9.0 0.00 0.00 0.00 47 997.6
20260903182231 99 243 4.0 7.0 0.00 0.00 0.00 47 997.6
20260903181732 99 192 3.0 5.0 0.00 0.00 0.00 47 997.7
20260903181233 98 271 2.0 5.0 0.00 0.00 0.00 48 997.8
20260903181001 98 180 3.0 9.0 0.00 0.00 0.00 48 997.8
20260903180232 98 243 4.0 12.0 0.00 0.00 0.00 48 998.0
20260903180010 97 248 5.0 13.0 0.00 0.00 0.00 47 998.0
20260903175231 97 250 5.0 13.0 0.00 0.00 0.00 49 998.0
20260903174730 98 197 7.0 10.0 0.00 0.00 0.00 48 998.1
20260903174231 97 274 2.0 11.0 0.00 0.00 0.00 50 998.1
20260903173730 97 255 9.0 12.0 0.00 0.00 0.00 49 998.2
20260903173233 97 248 8.0 12.0 0.00 0.00 0.00 50 998.3
20260903172731 96 265 5.0 13.0 0.00 0.00 0.00 51 998.3
20260903171731 98 261 8.0 13.0 0.00 0.00 0.00 50 998.5